ATLAS 5 CENTAUR R/B

Last updated on Mon Dec 15 2025 00:02:09 GMT+0000 (Coordinated Universal Time)

1 66455U 25261B 25348.09003214 -.00000072 00000+0 00000+0 0 9991 2 66455 6.1441 291.4807 2329423 186.7554 174.3010 2.28260018 685
UTC large
Height (km)
Speed (km/s)
/
Latitude / Longitude
Inclination (degrees)
Orbital Period (minutes)
Azimuth
Elevation
Range (km)
Doppler Factor

Next 0 passes for location: London (51.5072 / 0.1276)

Sorry there are no passes over London.